Вернуться в каталог

FENGYUN 1C DEB

АктивенPO
NORAD 31952·DEBRIS·🇨🇳 China

Запущен May 10, 1999 с Taiyuan Satellite Launch Center

Loading…

Ближайшие Пролёты (ближайшие 24 часа)

TLE

СвежийSource: Space-Track

Эпоха: Sep 14, 2026, 20:45 UTC

1 31952U 99025CND 26257.86525886  .00001942  00000-0  42998-3 0  9996
2 31952  98.9886  39.6609 0112947 177.3415 182.8404 14.54623685 12111

Отслеживайте FENGYUN 1C DEB в реальном времени с AllMySat

Download on the App Store